Weather Service Report


133 
ASUS43 KDTX 300801
RWRMI 
MICHIGAN HOURLY REGIONAL WEATHER ROUNDUP
NATIONAL WEATHER SERVICE DETROIT/PONTIAC MI
300 AM EST FRI JAN 30 2015

NOTE: "FAIR" INDICATES FEW OR NO CLOUDS BELOW 12,000 FEET WITH NO
SIGNIFICANT WEATHER AND/OR OBSTRUCTION TO VISIBILITY.

MIZ047>049-052>055-059>063-066>070-074>076-081>083-300900-
SOUTHEAST LOWER MICHIGAN
  
CITY           SKY/WX    TMP DP  RH WIND       PRES   REMARKS
ADRIAN         PTCLDY    22  12  65 N14       30.20R WCI   9          
ALMA           FLURRIES  20  11  68 NW12G25   30.23R WCI   8          
ANN ARBOR      CLOUDY    23  13  65 NW12G24   30.16R WCI  12          
BAD AXE        LGT SNOW  15  11  83 N22       30.16R WCI  -2          
CARO           CLOUDY    18  10  72 NW17G25   30.18R WCI   2          
DETROIT CITY   CLOUDY    25  13  60 NW17G29   30.14R WCI  12          
DETROIT        FLURRIES  23  13  65 NW17G29   30.16R WCI   9          
FLINT          LGT SNOW  22  13  68 NW16      30.18R WCI   8          
GROSSE ILE     CLOUDY    25  14  63 NW16G30   30.13R WCI  12          
HILLSDALE      MOCLDY    21  12  67 NW17      30.18R WCI   7          
HOWELL         FLURRIES  22  12  67 NW18G28   30.17R WCI   7          

CITY           SKY/WX    TMP DP  RH WIND       PRES   REMARKS
JACKSON        CLOUDY    21  11  65 NW15G28   30.19R WCI   8          
LAMBERTVILLE   CLEAR     27  14  59 NW13G21   30.18R WCI  16          
LANSING        CLOUDY    22  11  62 NW16G23   30.22R WCI   8          
LAPEER         LGT SNOW  19  14  82 NW17G24   30.15R WCI   4          
MASON          CLOUDY    22  12  66 NW15G24   30.19R WCI   8          
MONROE         CLOUDY    25  14  63 NW15G23   30.15R WCI  12          
MT. CLEMENS    MIX PCPN  22  14  70 NW16G24   30.11R WCI   9          
PONTIAC        LGT SNOW  20  13  74 NW16G29   30.13R WCI   6          
PORT HOPE        N/A     19  14  81 NW12G26   30.13R WCI   7          
PORT HURON     CLOUDY    19  14  79 NW18G25   30.12R WCI   4          
TRI CITIES     MOCLDY    19   9  65 NW22      30.20R WCI   2          
SAGINAW HB     CLOUDY    21  12  68 NW15G28   30.21R WCI   8          
$$
MIZ043>046-050>051-056>058-064>065-071>073-077>080-300900-
SOUTHWEST LOWER MICHIGAN
  
CITY           SKY/WX    TMP DP  RH WIND       PRES   REMARKS
BATTLE CREEK   CLOUDY    23  10  57 NW18G28   30.24R WCI   9          
BENTON HARBOR  FLURRIES  25  17  72 NW13G25   30.32R WCI  14          
BIG RAPIDS     CLOUDY    20  15  81 NW12G17   30.24R WCI   8          
COLDWATER      CLOUDY    22  12  65 NW15G22   30.23R WCI   9          
FREMONT        FLURRIES  21  13  70 N16G29    30.28R WCI   7          
HOLLAND        CLOUDY    24  10  55 N13G25    30.31R WCI  12          
GRAND RAPIDS   LGT SNOW  21  14  74 NW14      30.27R WCI   8          
IONIA          CLOUDY    23  12  63 N13G28    30.23R WCI  11          
KALAMAZOO      MOCLDY    22  10  60 N20G33    30.27R WCI   7          
LUDINGTON      CLOUDY    22  11  61 N16G29    30.34R WCI   8          
MARSHALL       FLURRIES  21  14  73 NW12G17   30.22R WCI   9          
MOUNT PLEASANT CLOUDY    19   9  63 NW18G26   30.23R WCI   4          
MUSKEGON       FLURRIES  23  12  62 N18G24    30.33R WCI   9          
SOUTH HAVEN    LGT SNOW  25  19  80 N15G26    30.31R WCI  12          
$$
MIZ016>042-300900-
NORTHERN LOWER MICHIGAN
  
CITY           SKY/WX    TMP DP  RH WIND       PRES   REMARKS
ALPENA         LGT SNOW  10   5  80 N15G29    30.23R WCI  -7          
BEAVER ISLAND  PTCLDY    12   4  70 CALM      30.33R                  
BELLAIRE       CLOUDY    15   6  66 NW12G21   30.31R WCI   2          
CADILLAC       CLOUDY    16   8  72 NW16G26   30.22R WCI   0          
CHARLEVOIX     CLOUDY    14   6  70 N16G24    30.34R WCI  -2          
FRANKFORT      CLOUDY    20  11  69 NW13G23   30.33R WCI   7          
GAYLORD        MIX PCPN   9   3  77 VRB6G23   30.22R WCI  -1          
GRAYLING       CLOUDY    13   7  76 NW16G28   30.23R WCI  -3          
HARBOR SPRINGS CLOUDY    11   3  70 N12G23    30.30R WCI  -3          
HOUGHTON LAKE  CLOUDY    13   5  70 NW21G30   30.21R WCI  -5          
MANISTEE       CLOUDY    21   9  58 N15G22    30.33R WCI   8          
OSCODA         PTCLDY    13   5  71 N22G31    30.18R WCI  -6          
PELLSTON       CLOUDY    11   2  67 N18G24    30.31R WCI  -7          
ROGERS CITY    CLOUDY    10   6  82 NW13G22   30.27R WCI  -5          
TRAVERSE CITY  CLOUDY    19   8  62 N16G22    30.30R WCI   4          
$$
MIZ007>008-015-300900-
EASTERN UPPER MICHIGAN
  
CITY           SKY/WX    TMP DP  RH WIND       PRES   REMARKS
KINROSS        PTCLDY     1  -2  85 NW20G25   30.28R WCI -20          
MACKINAC ISLAN MOCLDY     8   2  74 N16G26    30.29R WCI  -9          
NEWBERRY       LGT SNOW   9   7  90 NW7       30.31R WCI  -2          
S. S. MARIE    PTCLDY     0  -9  65 NW13      30.31R WCI -18          
MUNISING         N/A     17   6  62 N16       30.36R WCI   2          
$$
MIZ004>006-011>014-085-300900-
CENTRAL UPPER MICHIGAN
  
CITY           SKY/WX    TMP DP  RH WIND       PRES   REMARKS
MANISTIQUE     FLURRIES  14  10  86 N9        30.34R WCI   1          
ESCANABA       CLOUDY    16   3  57 NW12G24   30.39R WCI   3          
MENOMINEE      CLOUDY    16   1  53 N13G23    30.40R WCI   2          
SAWYER-GWINN   CLOUDY    11   3  70 NW15G24   30.35R WCI  -5          
$$
MIZ001>003-009>011-084-300900-
WESTERN UPPER MICHIGAN
  
CITY           SKY/WX    TMP DP  RH WIND       PRES   REMARKS
IRON MOUNTAIN  CLOUDY    12   2  64 N9        30.37R WCI   0          
HOUGHTON       LGT SNOW   9   2  73 N8        30.40R WCI  -3          
COPPER HARBOR    N/A     13   6  74 N18G29    30.43R WCI  -4          
IRONWOOD       CLOUDY    12   7  79 NW9       30.41R WCI   0          
$$

ABBREVIATIONS USED IN REMARKS
   TC - TEMPERATURE IN CELSIUS
  WCI - WIND CHILL INDEX
   HX - HEAT INDEX
  VSB - VISIBILITY


Return to Home page


Western Regional Climate Center, wrcc@dri.edu